Date String (YYYY-MM-DD hh:mm:ss) UTC,Instrument flags,Ambient pressure (hPa),Sample flow (lpm),Bypass flow (lpm),Sample temperature (°C),Ambient temperature (°C),ASC tube jacket temperature (°C),LED temperature (°C),Box temperature (°C),Sample RH (%),Span deviation,Mass concentration (μg/m³),Mass concentration (μg/m³),Mass concentration (μg/m³)
DateTimeUTC,F1_M11,P_M11,Q1_M11,Q2_M11,T1_M11,T2_M11,T3_M11,T4_M11,T5_M11,U1_M11,ZSPAN_M11,X2_M11,X0_M11,X1_M11
2022-01-15 04:00:00,,0835.6,5.00,0.00,22.4,22.1,00.0,31.3,24.2,10.1,0000.0,0001.74,0004.56,0001.49
2022-01-15 04:01:00,,0835.6,5.00,0.00,22.4,22.0,00.0,31.3,24.1,10.1,0000.0,0001.74,0004.61,0001.50
2022-01-15 04:02:00,,0835.6,5.01,0.00,22.4,21.9,00.0,31.3,24.1,10.1,0000.0,0001.77,0004.74,0001.51
2022-01-15 04:03:00,,0835.7,5.00,0.00,22.4,21.9,00.0,31.3,24.0,10.1,0000.0,0001.79,0004.75,0001.53
2022-01-15 04:04:00,,0835.7,5.00,0.00,22.3,21.8,00.0,31.3,24.0,10.1,0000.0,0001.83,0004.11,0001.54
2022-01-15 04:05:00,,0835.7,4.99,0.00,22.3,21.7,00.0,31.3,24.0,10.1,0000.0,0001.81,0003.75,0001.53
2022-01-15 04:06:00,,0835.7,5.00,0.00,22.3,21.7,00.0,31.3,23.9,10.2,0000.0,0001.82,0003.78,0001.53
2022-01-15 04:07:00,,0835.8,5.00,0.00,22.2,21.7,00.0,31.3,23.9,10.2,0000.0,0001.80,0003.60,0001.54
2022-01-15 04:08:00,,0835.8,5.01,0.00,22.2,21.6,00.0,31.3,23.8,10.3,0000.0,0001.80,0003.40,0001.56
2022-01-15 04:09:00,,0835.9,5.01,0.00,22.2,21.5,00.0,31.3,23.8,10.3,0000.0,0001.85,0002.69,0001.58
2022-01-15 04:10:00,,0835.9,4.99,0.00,22.1,21.5,00.0,31.3,23.8,10.3,0000.0,0001.89,0002.76,0001.60
2022-01-15 04:11:00,,0835.9,5.00,0.00,22.1,21.4,00.0,31.2,23.7,10.3,0000.0,0001.92,0002.83,0001.61
2022-01-15 04:12:00,,0835.9,5.00,0.00,22.1,21.4,00.0,31.2,23.7,10.3,0000.0,0001.93,0002.75,0001.62
2022-01-15 04:13:00,,0835.9,5.00,0.00,22.0,21.3,00.0,31.2,23.6,10.3,0000.0,0001.94,0002.72,0001.63
2022-01-15 04:14:00,,0835.9,5.00,0.00,22.0,21.3,00.0,31.2,23.6,10.4,0000.0,0001.97,0002.82,0001.64
2022-01-15 04:15:00,,0836.0,5.01,0.00,22.0,21.3,00.0,31.2,23.6,10.4,0000.0,0001.97,0003.08,0001.65
2022-01-15 04:16:00,,0836.0,5.00,0.00,21.9,21.2,00.0,31.1,23.5,10.4,0000.0,0002.03,0003.59,0001.66
2022-01-15 04:17:00,,0836.0,4.99,0.00,21.9,21.2,00.0,31.1,23.5,10.4,0000.0,0002.04,0004.23,0001.68
2022-01-15 04:18:00,,0835.9,5.00,0.00,21.9,21.1,00.0,31.1,23.5,10.5,0000.0,0002.06,0004.24,0001.71
2022-01-15 04:19:00,,0835.9,5.00,0.00,21.9,21.5,00.0,31.1,23.6,10.5,0000.0,0002.06,0004.21,0001.72
2022-01-15 04:20:00,,0836.0,5.02,0.00,22.0,22.3,00.0,31.1,23.9,10.5,0000.0,0002.03,0004.06,0001.73
2022-01-15 04:21:00,,0836.0,5.00,0.00,22.2,22.8,00.0,31.1,24.1,10.3,0000.0,0002.05,0004.09,0001.76
2022-01-15 04:22:00,,0835.9,4.99,0.00,22.2,22.6,00.0,31.1,24.1,10.3,0000.0,0002.07,0005.36,0001.77
2022-01-15 04:23:00,,0836.0,5.00,0.00,22.2,22.3,00.0,31.1,23.9,10.2,0000.0,0002.10,0005.58,0001.78
2022-01-15 04:24:00,,0835.9,5.00,0.00,22.1,22.0,00.0,31.1,23.8,10.3,0000.0,0002.12,0005.69,0001.80
2022-01-15 04:25:00,,0835.9,4.99,0.00,22.1,21.8,00.0,31.1,23.7,10.3,0000.0,0002.10,0005.60,0001.81
2022-01-15 04:26:00,,0835.9,5.01,0.00,22.0,21.6,00.0,31.1,23.6,10.4,0000.0,0002.14,0005.77,0001.83
2022-01-15 04:27:00,,0835.9,5.00,0.00,21.9,21.4,00.0,31.1,23.5,10.4,0000.0,0002.14,0005.75,0001.87
2022-01-15 04:28:00,,0835.9,5.01,0.00,21.9,21.2,00.0,31.1,23.4,10.5,0000.0,0002.13,0004.89,0001.88
2022-01-15 04:29:00,,0835.9,5.00,0.00,21.8,21.1,00.0,31.0,23.3,10.5,0000.0,0002.13,0004.89,0001.89
2022-01-15 04:30:00,,0835.9,5.01,0.00,21.8,21.0,00.0,31.0,23.3,10.6,0000.0,0002.14,0005.66,0001.88
2022-01-15 04:31:00,,0835.9,4.99,0.00,21.7,21.0,00.0,31.0,23.3,10.5,0000.0,0002.19,0006.75,0001.90
2022-01-15 04:32:00,,0835.8,5.01,0.00,21.7,20.9,00.0,30.9,23.2,10.5,0000.0,0002.18,0006.72,0001.91
2022-01-15 04:33:00,,0835.9,4.99,0.00,21.6,20.8,00.0,30.9,23.2,10.5,0000.0,0002.20,0006.56,0001.92
2022-01-15 04:34:00,,0835.9,5.00,0.00,21.6,20.7,00.0,30.9,23.1,10.5,0000.0,0002.20,0007.04,0001.93
2022-01-15 04:35:00,,0835.9,5.00,0.00,21.6,21.3,00.0,30.9,23.3,10.5,0000.0,0002.21,0007.38,0001.95
2022-01-15 04:36:00,,0835.9,4.99,0.00,21.8,22.2,00.0,30.9,23.6,10.5,0000.0,0002.24,0007.58,0001.95
2022-01-15 04:37:00,,0835.9,5.00,0.00,21.9,22.8,00.0,30.9,23.9,10.4,0000.0,0002.24,0007.31,0001.96
2022-01-15 04:38:00,,0835.9,5.00,0.00,22.0,22.6,00.0,30.9,23.9,10.3,0000.0,0002.24,0007.24,0001.96
2022-01-15 04:39:00,,0835.9,4.99,0.00,22.0,22.4,00.0,30.9,23.8,10.3,0000.0,0002.25,0008.18,0001.97
2022-01-15 04:40:00,,0835.9,5.01,0.00,22.0,22.1,00.0,30.9,23.8,10.2,0000.0,0002.26,0008.38,0001.97
2022-01-15 04:41:00,,0835.9,5.01,0.00,22.0,21.9,00.0,31.0,23.7,10.2,0000.0,0002.24,0008.04,0001.96
2022-01-15 04:42:00,,0835.9,5.00,0.00,22.0,21.8,00.0,31.0,23.6,10.2,0000.0,0002.19,0007.44,0001.93
2022-01-15 04:43:00,,0835.9,5.00,0.00,21.9,21.6,00.0,30.9,23.6,10.3,0000.0,0002.14,0007.31,0001.91
2022-01-15 04:44:00,,0835.8,5.00,0.00,21.9,21.5,00.0,30.9,23.5,10.4,0000.0,0002.13,0006.81,0001.91
2022-01-15 04:45:00,,0835.8,5.00,0.00,21.9,21.4,00.0,30.9,23.5,10.4,0000.0,0002.14,0005.58,0001.92
2022-01-15 04:46:00,,0835.9,5.00,0.00,21.9,21.4,00.0,30.9,23.5,10.4,0000.0,0002.12,0005.29,0001.91
2022-01-15 04:47:00,,0835.8,5.00,0.00,21.8,21.3,00.0,30.9,23.5,10.4,0000.0,0002.13,0004.84,0001.90
2022-01-15 04:48:00,,0835.9,5.01,0.00,21.8,21.2,00.0,30.9,23.4,10.4,0000.0,0002.12,0004.78,0001.90
2022-01-15 04:49:00,,0835.9,5.00,0.00,21.8,21.2,00.0,30.9,23.4,10.4,0000.0,0002.11,0004.75,0001.91
2022-01-15 04:50:00,,0835.9,4.99,0.00,21.7,21.1,00.0,30.9,23.3,10.4,0000.0,0002.11,0003.60,0001.91
2022-01-15 04:51:00,,0835.9,4.99,0.00,21.7,21.0,00.0,30.8,23.3,10.4,0000.0,0002.12,0002.68,0001.92
2022-01-15 04:52:00,,0835.9,5.00,0.00,21.6,21.0,00.0,30.8,23.2,10.5,0000.0,0002.12,0002.57,0001.93
2022-01-15 04:53:00,,0835.9,5.01,0.00,21.6,20.9,00.0,30.8,23.2,10.5,0000.0,0002.10,0002.55,0001.93
2022-01-15 04:54:00,,0835.9,5.00,0.00,21.6,21.2,00.0,30.8,23.3,10.5,0000.0,0002.10,0002.57,0001.91
2022-01-15 04:55:00,,0835.9,4.99,0.00,21.8,22.0,00.0,30.8,23.6,10.4,0000.0,0002.09,0002.51,0001.91
2022-01-15 04:56:00,,0835.9,5.00,0.00,21.9,22.8,00.0,30.9,23.9,10.2,0000.0,0002.07,0003.30,0001.87
2022-01-15 04:57:00,,0835.9,5.00,0.00,22.0,22.7,00.0,30.9,23.9,10.0,0000.0,0002.05,0003.82,0001.85
2022-01-15 04:58:00,,0835.9,4.99,0.00,22.0,22.4,00.0,30.9,23.8,10.0,0000.0,0002.06,0003.94,0001.85
2022-01-15 04:59:00,,0835.9,5.02,0.00,21.9,22.1,00.0,30.9,23.7,10.1,0000.0,0002.04,0003.91,0001.83
